Regional Weather Roundup
Issued by NWS

Home | Current Version | Previous Version | Text Only | Print | Product List | Glossary On
Versions: 1 2 3 4 5 6 7 8 9 10 11 12 13 14 15 16 17 18 19 20 21 22 23 24 25 26 27 28 29 30 31 32 33 34 35 36 37 38 39 40 41 42 43 44 45 46 47 48 49 50
000
ASCA44 KEWX 171520
RWRMX

LATIN AMERICA AND CARIBBEAN REGIONAL WEATHER ROUNDUP
NATIONAL WEATHER SERVICE AUSTIN/SAN ANTONIO TX
900 AM CST TUE JAN 17 2017

NOTE: "FAIR" INDICATED FEW OR NO CLOUDS BELOW 12,000 FEET WITH NO
SIGNIFICANT WEATHER AND/OR OBSTRUCTIONS TO VISIBILITY.

BAJA CALIFORNIA

CITY           SKY/WX    TMP DP  RH WIND       PRES   REMARKS
LORETO         PTCLDY    59  50  72 NW5       30.01R
LA PAZ         SUNNY     50  46  87 S3        30.05R
MEXICALI       CLEAR     45  39  81 W8        30.09  WCI  40
S.J. DEL CABO  SUNNY     54  46  76 NW6       30.03R
TIJUANA        CLEAR     45  41  87 CALM      30.12R

NORTHWESTERN MEXICO

CITY           SKY/WX    TMP DP  RH WIND       PRES   REMARKS
CULIACAN       MOSUNNY   52  50  93 CALM      30.04R
DURANGO        CLOUDY    54  39  58 S9        30.14R
GUAYMAS        PTCLDY    57  54  88 CALM      29.96R
HERMOSILLO     PTCLDY    52  48  87 CALM      30.01R
CD. JUAREZ     MOCLDY    45  28  53 N9        30.02R WCI  40
LOS MOCHIS     SUNNY     52  46  82 E3        30.04R
OBREGON        PTCLDY    48  45  87 SE8       29.97R WCI  45

NORTHEASTERN MEXICO

CITY           SKY/WX    TMP DP  RH WIND       PRES   REMARKS
CHIHUAHUA      SUNNY     32  23  69 S9        30.07R WCI  24
MATAMOROS      LGT RAIN  72  70  94 SE6       30.00R
MONCLOVA       PTSUNNY   61  46  59 E5        30.00S
MONTERREY      CLOUDY    63  59  88 NW3       29.95S
NUEVO LAREDO   CLOUDY    68  66  94 E6        29.97R FOG
PIEDRAS NEGRAS CLOUDY    61  55  82 NW7       30.01S
REYNOSA        CLOUDY    70  66  88 S7        29.99R FOG
SALTILLO       CLOUDY    59  46  63 S9        30.13R
TORREON        PTSUNNY   70  32  24 SE9       29.97R
CD. VICTORIA   PTSUNNY   70  68  94 S12       29.98R

WESTERN MEXICO

CITY           SKY/WX    TMP DP  RH WIND       PRES   REMARKS
AGUASCALIENTES PTSUNNY   54  41  62 S7        30.26R
COLIMA         MOSUNNY   68  57  68 N12       30.09R
DEL BAJIO      PTSUNNY   54  39  58 CALM      30.30R
GUADALAJARA    PTSUNNY   50  43  76 SE5       30.20R WCI  48
MANZANILLO     CLOUDY    70  64  83 N7        29.92R
MAZATLAN       CLOUDY    63  57  82 N3        30.03R
P. VALLARTA    CLOUDY    68  64  88 NE3       29.99R
URUAPAN        CLOUDY    54  50  87 CALM      30.20R
ZACATECAS      PTSUNNY   54  36  50 SW12      30.20F

CENTRAL MEXICO

CITY           SKY/WX    TMP DP  RH WIND       PRES   REMARKS
CUERNAVACA     MOSUNNY   63  45  51 CALM      30.17R
MEXICO CITY    MOSUNNY   52  34  50 NE2       30.33R
MORELIA        PTSUNNY   52  41  66 CALM      30.27R
POZA RICA      FOG       70  68  94 CALM      30.03R VSB 1
PUEBLA         SUNNY     46  34  61 NW8       30.34R WCI  42
QUERETARO      PTSUNNY   50  39  66 NW3       30.31R
S. LUIS POTOSI CLOUDY    48  39  71 NE3       30.22S
TAMPICO        SUNNY     73  72  94 CALM      29.99R
TOLUCA         PTSUNNY   43  34  70 SE6       30.38R WCI  39

SOUTHERN MEXICO

CITY           SKY/WX    TMP DP  RH WIND       PRES   REMARKS
ACAPULCO       SUNNY     75  68  78 N6        29.98R
B. DE HUATULCO   N/A    N/A N/A N/A MISG        N/A
OAXACA         MOSUNNY   59  43  55 N8        30.28R
P. ESCONDIDO   SUNNY     75  66  73 NE8       30.09R
VERACRUZ       SUNNY     73  72  94 NW2       30.01R FOG
ZIHUATANEJO    PTSUNNY   77  66  69 CALM      29.96R

YUCATAN PENINSULA

CITY           SKY/WX    TMP DP  RH WIND       PRES   REMARKS
CAMPECHE       SUNNY     77  72  83 E17       30.01R
CANCUN         PTSUNNY   79  72  78 E7        30.11R
CHETUMAL       PTSUNNY   75  70  83 E6        30.07R
CD. DEL CARMEN SUNNY     77  70  78 SE20      30.01R
COZUMEL        MOSUNNY   79  73  83 SE8       30.01F
MERIDA         MOSUNNY   75  68  78 E12       30.07R
MINATITLAN     PTSUNNY   70  61  73 CALM      29.99R
TAPACHULA      MOSUNNY   81  70  69 E2        29.97R
TUX. GUTIERREZ SUNNY     70  63  78 CALM      30.06R
VILLAHERMOSA   SUNNY     73  68  83 E12       30.01R

CENTRAL AMERICA

CITY           SKY/WX    TMP DP  RH WIND       PRES   REMARKS
BELIZE CITY    MOSUNNY   81  72  74 E12       30.03R

CARIBBEAN

CITY           SKY/WX    TMP DP  RH WIND       PRES   REMARKS
ARUBA          MOSUNNY   84  72  65 E16       29.97S
CURACAO        MOSUNNY   82  73  74 E9        30.00S
KINGSTON       MOSUNNY   82  66  57 W6        30.06S
NASSAU         MOSUNNY   77  66  69 E10       30.25R
SAN JUAN       MOSUNNY   82  68  61 E20       30.11F
SANTO DOMINGO  MOSUNNY   82  72  69 E9        30.09F
ST. CROIX      MOSUNNY   82  66  57 NE16      30.09F
ST. KITTS      MOSUNNY   82  68  61 NE18      30.06S
ST. MAARTEN    MOSUNNY   82  66  57 NE17      30.06F
ST. THOMAS     MOSUNNY   82  66  57 E13G22    30.10S

$$





USA.gov is the U.S. government's official web portal to all federal, state and local government web resources and services.